| time (UTC) | temp C | wind direction | speed KPH | gust KPH | rain 1hr cm | rain 24hr cm | rain mn cm | humidity % | barometer mb |
| 20260507100003 | 11 | 168 | 3.2 | 6.4 | 0.00 | 0.00 | 0.00 | 37 | 1016.5 |
| 20260507095003 | 11 | 224 | 3.2 | 6.4 | 0.00 | 0.00 | 0.00 | 37 | 1016.5 |
| 20260507094003 | 11 | 171 | 1.6 | 6.4 | 0.00 | 0.00 | 0.00 | 38 | 1016.6 |
| 20260507093003 | 11 | 167 | 1.6 | 6.4 | 0.00 | 0.00 | 0.00 | 37 | 1016.9 |
| 20260507092003 | 10 | 40 | 1.6 | 6.4 | 0.00 | 0.00 | 0.00 | 39 | 1016.5 |
| 20260507091003 | 10 | 58 | 3.2 | 6.4 | 0.00 | 0.00 | 0.00 | 40 | 1016.8 |
| 20260507090004 | 10 | 61 | 3.2 | 6.4 | 0.00 | 0.00 | 0.00 | 41 | 1017.0 |
| 20260507085003 | 10 | 157 | 3.2 | 9.7 | 0.00 | 0.00 | 0.00 | 40 | 1016.8 |
| 20260507084003 | 10 | 243 | 3.2 | 9.7 | 0.00 | 0.00 | 0.00 | 44 | 1016.8 |
| 20260507083004 | 10 | 232 | 3.2 | 6.4 | 0.00 | 0.00 | 0.00 | 43 | 1016.4 |
| 20260507082003 | 10 | 293 | 3.2 | 6.4 | 0.00 | 0.00 | 0.00 | 42 | 1016.7 |
| 20260507081003 | 9 | 231 | 3.2 | 9.7 | 0.00 | 0.00 | 0.00 | 46 | 1016.6 |
| 20260507080004 | 8 | 215 | 3.2 | 9.7 | 0.00 | 0.00 | 0.00 | 46 | 1016.5 |
| 20260507075003 | 8 | 210 | 3.2 | 11.3 | 0.00 | 0.00 | 0.00 | 46 | 1016.4 |
| 20260507074003 | 8 | 207 | 3.2 | 9.7 | 0.00 | 0.00 | 0.00 | 47 | 1016.7 |
| 20260507073003 | 8 | 202 | 3.2 | 6.4 | 0.00 | 0.00 | 0.00 | 48 | 1016.5 |
| 20260507072003 | 8 | 204 | 3.2 | 6.4 | 0.00 | 0.00 | 0.00 | 48 | 1016.3 |
| 20260507071003 | 7 | 203 | 1.6 | 6.4 | 0.00 | 0.00 | 0.00 | 49 | 1016.2 |
| 20260507070005 | 7 | 184 | 1.6 | 3.2 | 0.00 | 0.00 | 0.00 | 51 | 1016.2 |
| 20260507065003 | 7 | 0 | 0.0 | 6.4 | 0.00 | 0.00 | 0.00 | 50 | 1016.2 |
| 20260507064003 | 7 | 0 | 0.0 | 3.2 | 0.00 | 0.00 | 0.00 | 50 | 1016.3 |
| 20260507063003 | 6 | 0 | 0.0 | 3.2 | 0.00 | 0.00 | 0.00 | 54 | 1016.2 |
| 20260507062003 | 5 | 145 | 1.6 | 3.2 | 0.00 | 0.00 | 0.00 | 54 | 1016.1 |
| 20260507061003 | 4 | 118 | 1.6 | 3.2 | 0.00 | 0.00 | 0.00 | 57 | 1016.0 |
| 20260507060003 | 3 | 67 | 1.6 | 3.2 | 0.00 | 0.00 | 0.00 | 61 | 1016.1 |
| 20260507055003 | 2 | 0 | 0.0 | 3.2 | 0.00 | 0.00 | 0.00 | 63 | 1016.2 |
| 20260507054003 | 2 | 0 | 0.0 | 3.2 | 0.00 | 0.00 | 0.00 | 64 | 1015.7 |
| 20260507053004 | 2 | 0 | 0.0 | 0.0 | 0.00 | 0.00 | 0.00 | 65 | 1015.7 |
| 20260507052003 | 1 | 0 | 0.0 | 0.0 | 0.00 | 0.00 | 0.00 | 65 | 1015.7 |
| 20260507051003 | 1 | 0 | 0.0 | 0.0 | 0.00 | 0.00 | 0.00 | 67 | 1015.6 |
| 20260507050003 | 1 | 0 | 0.0 | 0.0 | 0.00 | 0.00 | 0.00 | 67 | 1015.9 |
| 20260507045003 | 1 | 0 | 0.0 | 0.0 | 0.00 | 0.00 | 0.00 | 66 | 1015.4 |
| 20260507044003 | 1 | 0 | 0.0 | 0.0 | 0.00 | 0.00 | 0.00 | 66 | 1015.4 |
| 20260507043003 | 0 | 0 | 0.0 | 0.0 | 0.00 | 0.00 | 0.00 | 69 | 1015.2 |
| 20260507042003 | 0 | 0 | 0.0 | 0.0 | 0.00 | 0.00 | 0.00 | 70 | 1015.3 |
| 20260507041003 | 0 | 0 | 0.0 | 0.0 | 0.00 | 0.00 | 0.00 | 71 | 1015.2 |
| 20260507040003 | -1 | 0 | 0.0 | 0.0 | 0.00 | 0.00 | 0.00 | 74 | 1015.3 |
| 20260507035003 | -1 | 0 | 0.0 | 0.0 | 0.00 | 0.00 | 0.00 | 73 | 1015.0 |
| 20260507034003 | -1 | 0 | 0.0 | 0.0 | 0.00 | 0.00 | 0.00 | 74 | 1014.8 |
| 20260507033003 | -1 | 0 | 0.0 | 0.0 | 0.00 | 0.00 | 0.00 | 75 | 1015.1 |
| 20260507032003 | -1 | 0 | 0.0 | 0.0 | 0.00 | 0.00 | 0.00 | 75 | 1015.0 |
| 20260507031003 | -1 | 0 | 0.0 | 0.0 | 0.00 | 0.00 | 0.00 | 74 | 1014.8 |
| 20260507030003 | -1 | 0 | 0.0 | 0.0 | 0.00 | 0.00 | 0.00 | 72 | 1014.9 |
| 20260507025003 | 0 | 0 | 0.0 | 0.0 | 0.00 | 0.00 | 0.00 | 69 | 1014.8 |
| 20260507024003 | 0 | 0 | 0.0 | 0.0 | 0.00 | 0.00 | 0.00 | 68 | 1014.5 |
| 20260507023003 | 0 | 0 | 0.0 | 0.0 | 0.00 | 0.00 | 0.00 | 69 | 1014.6 |
| 20260507022003 | 0 | 0 | 0.0 | 0.0 | 0.00 | 0.00 | 0.00 | 69 | 1014.4 |
| 20260507021003 | 0 | 0 | 0.0 | 0.0 | 0.00 | 0.00 | 0.00 | 67 | 1014.5 |
| 20260507020003 | 0 | 0 | 0.0 | 0.0 | 0.00 | 0.00 | 0.00 | 67 | 1014.6 |
| 20260507015003 | 0 | 0 | 0.0 | 0.0 | 0.00 | 0.00 | 0.00 | 67 | 1014.4 |
| 20260507014003 | 0 | 0 | 0.0 | 0.0 | 0.00 | 0.00 | 0.00 | 67 | 1014.2 |
| 20260507013003 | 0 | 0 | 0.0 | 0.0 | 0.00 | 0.00 | 0.00 | 66 | 1014.2 |
| 20260507012003 | 0 | 0 | 0.0 | 0.0 | 0.00 | 0.00 | 0.00 | 67 | 1014.4 |
| 20260507011003 | 0 | 0 | 0.0 | 0.0 | 0.00 | 0.00 | 0.00 | 65 | 1014.1 |
| 20260507010003 | 1 | 0 | 0.0 | 0.0 | 0.00 | 0.00 | 0.00 | 63 | 1013.9 |
| 20260507005003 | 1 | 0 | 0.0 | 0.0 | 0.00 | 0.00 | 0.00 | 62 | 1014.0 |
| 20260507004003 | 2 | 0 | 0.0 | 3.2 | 0.00 | 0.00 | 0.00 | 59 | 1013.6 |
| 20260507003003 | 2 | 58 | 1.6 | 6.4 | 0.00 | 0.00 | 0.00 | 56 | 1013.8 |
| 20260507002003 | 2 | 0 | 0.0 | 6.4 | 0.00 | 0.00 | 0.00 | 57 | 1013.6 |
| 20260507001003 | 2 | 60 | 3.2 | 6.4 | 0.00 | 0.00 | 0.00 | 58 | 1013.5 |
| 20260507000003 | 2 | 50 | 3.2 | 6.4 | 0.00 | 0.00 | 0.00 | 57 | 1013.6 |
| 20260506235003 | 2 | 65 | 3.2 | 6.4 | 0.00 | 0.00 | 0.00 | 57 | 1013.3 |
| 20260506234003 | 2 | 0 | 0.0 | 3.2 | 0.00 | 0.00 | 0.00 | 58 | 1013.7 |
| 20260506233003 | 3 | 0 | 0.0 | 3.2 | 0.00 | 0.00 | 0.00 | 53 | 1013.5 |
| 20260506232003 | 3 | 0 | 0.0 | 6.4 | 0.00 | 0.00 | 0.00 | 50 | 1013.4 |
| 20260506231003 | 3 | 70 | 3.2 | 6.4 | 0.00 | 0.00 | 0.00 | 49 | 1013.5 |
| 20260506230004 | 3 | 67 | 1.6 | 6.4 | 0.00 | 0.00 | 0.00 | 49 | 1013.2 |
| 20260506225003 | 3 | 0 | 0.0 | 3.2 | 0.00 | 0.00 | 0.00 | 50 | 1013.2 |
| 20260506224003 | 2 | 0 | 0.0 | 3.2 | 0.00 | 0.00 | 0.00 | 55 | 1013.2 |
| 20260506223003 | 3 | 67 | 1.6 | 3.2 | 0.00 | 0.00 | 0.00 | 53 | 1013.3 |
| 20260506222003 | 3 | 67 | 1.6 | 6.4 | 0.00 | 0.00 | 0.00 | 50 | 1013.1 |
| 20260506221003 | 5 | 88 | 3.2 | 6.4 | 0.00 | 0.00 | 0.00 | 45 | 1012.9 |
| 20260506220022 | 5 | 90 | 1.6 | 6.4 | 0.00 | 0.00 | 0.00 | 44 | 1012.9 |
| 20260506215003 | 5 | 85 | 1.6 | 6.4 | 0.00 | 0.00 | 0.00 | 44 | 1012.6 |
| 20260506214003 | 5 | 78 | 3.2 | 11.3 | 0.00 | 0.00 | 0.00 | 44 | 1012.7 |
| 20260506213003 | 5 | 76 | 4.8 | 11.3 | 0.00 | 0.00 | 0.00 | 43 | 1012.8 |
| 20260506212003 | 5 | 80 | 1.6 | 9.7 | 0.00 | 0.00 | 0.00 | 44 | 1012.6 |
| 20260506211003 | 5 | 0 | 0.0 | 6.4 | 0.00 | 0.00 | 0.00 | 45 | 1012.5 |
| 20260506210004 | 5 | 90 | 1.6 | 6.4 | 0.00 | 0.00 | 0.00 | 46 | 1012.3 |
| 20260506205003 | 5 | 0 | 0.0 | 6.4 | 0.00 | 0.00 | 0.00 | 47 | 1012.2 |
| 20260506204003 | 5 | 0 | 0.0 | 3.2 | 0.00 | 0.00 | 0.00 | 46 | 1012.3 |
| 20260506203003 | 6 | 92 | 1.6 | 6.4 | 0.00 | 0.00 | 0.00 | 45 | 1012.3 |
| 20260506202003 | 6 | 112 | 1.6 | 3.2 | 0.00 | 0.00 | 0.00 | 44 | 1012.2 |
| 20260506201003 | 7 | 101 | 1.6 | 3.2 | 0.00 | 0.00 | 0.00 | 41 | 1011.8 |
| 20260506200003 | 7 | 0 | 0.0 | 6.4 | 0.00 | 0.00 | 0.00 | 41 | 1011.8 |
| 20260506195003 | 7 | 72 | 3.2 | 9.7 | 0.00 | 0.00 | 0.00 | 39 | 1011.8 |
| 20260506194003 | 8 | 45 | 3.2 | 6.4 | 0.00 | 0.00 | 0.00 | 43 | 1011.8 |
| 20260506193003 | 8 | 38 | 1.6 | 6.4 | 0.00 | 0.00 | 0.00 | 41 | 1011.8 |
| 20260506192003 | 8 | 57 | 1.6 | 3.2 | 0.00 | 0.00 | 0.00 | 39 | 1011.5 |
| 20260506191003 | 8 | 0 | 0.0 | 6.4 | 0.00 | 0.00 | 0.00 | 38 | 1011.6 |
| 20260506190004 | 9 | 45 | 3.2 | 6.4 | 0.00 | 0.00 | 0.00 | 37 | 1011.7 |
| 20260506185003 | 10 | 60 | 3.2 | 6.4 | 0.00 | 0.00 | 0.00 | 36 | 1011.5 |
| 20260506184003 | 9 | 40 | 3.2 | 6.4 | 0.00 | 0.00 | 0.00 | 35 | 1011.4 |
| 20260506183003 | 9 | 35 | 1.6 | 6.4 | 0.00 | 0.00 | 0.00 | 36 | 1011.2 |
| 20260506182003 | 10 | 17 | 1.6 | 6.4 | 0.00 | 0.00 | 0.00 | 34 | 1011.0 |
| 20260506181003 | 10 | 22 | 1.6 | 6.4 | 0.00 | 0.00 | 0.00 | 34 | 1011.3 |
| 20260506180004 | 10 | 22 | 3.2 | 6.4 | 0.00 | 0.00 | 0.00 | 34 | 1011.0 |
| 20260506175003 | 10 | 16 | 3.2 | 9.7 | 0.00 | 0.00 | 0.00 | 33 | 1011.0 |
| 20260506174003 | 10 | 332 | 3.2 | 6.4 | 0.00 | 0.00 | 0.00 | 34 | 1011.0 |
| 20260506173003 | 10 | 1 | 3.2 | 6.4 | 0.00 | 0.00 | 0.00 | 33 | 1011.0 |
| 20260506172003 | 10 | 0 | 0.0 | 9.7 | 0.00 | 0.00 | 0.00 | 31 | 1010.9 |
| 20260506171003 | 10 | 53 | 3.2 | 6.4 | 0.00 | 0.00 | 0.00 | 32 | 1011.0 |
| 20260506170003 | 11 | 347 | 3.2 | 6.4 | 0.00 | 0.00 | 0.00 | 34 | 1011.1 |
| 20260506165003 | 11 | 42 | 1.6 | 9.7 | 0.00 | 0.00 | 0.00 | 32 | 1011.0 |
| 20260506164003 | 10 | 47 | 4.8 | 12.9 | 0.00 | 0.00 | 0.00 | 31 | 1011.1 |
| 20260506163004 | 11 | 21 | 6.4 | 11.3 | 0.00 | 0.00 | 0.00 | 31 | 1011.0 |
| 20260506162003 | 13 | 21 | 1.6 | 12.9 | 0.00 | 0.00 | 0.00 | 28 | 1011.1 |
| 20260506161003 | 12 | 47 | 4.8 | 14.5 | 0.00 | 0.00 | 0.00 | 29 | 1011.1 |
| 20260506160003 | 12 | 33 | 6.4 | 17.7 | 0.00 | 0.00 | 0.00 | 29 | 1011.0 |
| 20260506155003 | 13 | 329 | 3.2 | 9.7 | 0.00 | 0.00 | 0.00 | 29 | 1010.6 |
| 20260506154003 | 12 | 19 | 6.4 | 11.3 | 0.00 | 0.00 | 0.00 | 28 | 1011.0 |
| 20260506153003 | 13 | 343 | 3.2 | 9.7 | 0.00 | 0.00 | 0.00 | 28 | 1010.8 |
| 20260506152003 | 12 | 358 | 3.2 | 11.3 | 0.00 | 0.00 | 0.00 | 27 | 1011.1 |
| 20260506151003 | 13 | 317 | 4.8 | 14.5 | 0.00 | 0.00 | 0.00 | 29 | 1010.9 |
| 20260506150003 | 12 | 314 | 3.2 | 11.3 | 0.00 | 0.00 | 0.00 | 29 | 1011.1 |
| 20260506145003 | 12 | 35 | 6.4 | 14.5 | 0.00 | 0.00 | 0.00 | 28 | 1011.1 |
| 20260506144003 | 12 | 332 | 3.2 | 12.9 | 0.00 | 0.00 | 0.00 | 29 | 1011.4 |
| 20260506143003 | 12 | 346 | 6.4 | 11.3 | 0.00 | 0.00 | 0.00 | 28 | 1011.2 |
| 20260506142003 | 12 | 291 | 3.2 | 14.5 | 0.00 | 0.00 | 0.00 | 28 | 1011.6 |
| 20260506141003 | 13 | 28 | 3.2 | 6.4 | 0.00 | 0.00 | 0.00 | 28 | 1011.2 |
| 20260506140003 | 11 | 313 | 1.6 | 12.9 | 0.00 | 0.00 | 0.00 | 29 | 1011.5 |
| 20260506135003 | 12 | 328 | 4.8 | 11.3 | 0.00 | 0.00 | 0.00 | 27 | 1011.6 |
| 20260506134003 | 12 | 311 | 3.2 | 14.5 | 0.00 | 0.00 | 0.00 | 30 | 1011.6 |
| 20260506133003 | 12 | 318 | 3.2 | 17.7 | 0.00 | 0.00 | 0.00 | 29 | 1011.4 |
| 20260506132003 | 12 | 319 | 3.2 | 9.7 | 0.00 | 0.00 | 0.00 | 30 | 1011.6 |
| 20260506131003 | 11 | 300 | 4.8 | 12.9 | 0.00 | 0.00 | 0.00 | 26 | 1011.4 |
| 20260506130004 | 11 | 318 | 3.2 | 11.3 | 0.00 | 0.00 | 0.00 | 28 | 1011.5 |
| 20260506125003 | 11 | 290 | 3.2 | 14.5 | 0.00 | 0.00 | 0.00 | 26 | 1011.8 |
| 20260506124003 | 12 | 261 | 3.2 | 11.3 | 0.00 | 0.00 | 0.00 | 26 | 1011.8 |
| 20260506123004 | 12 | 315 | 3.2 | 11.3 | 0.00 | 0.00 | 0.00 | 26 | 1011.7 |
| 20260506122003 | 11 | 295 | 4.8 | 12.9 | 0.00 | 0.00 | 0.00 | 27 | 1011.8 |
| 20260506121003 | 11 | 359 | 1.6 | 9.7 | 0.00 | 0.00 | 0.00 | 30 | 1011.8 |
| 20260506120004 | 11 | 246 | 3.2 | 11.3 | 0.00 | 0.00 | 0.00 | 29 | 1012.1 |
| 20260506115003 | 11 | 298 | 4.8 | 12.9 | 0.00 | 0.00 | 0.00 | 30 | 1011.9 |
| 20260506114003 | 11 | 351 | 1.6 | 9.7 | 0.00 | 0.00 | 0.00 | 34 | 1012.2 |
| 20260506113003 | 10 | 32 | 6.4 | 12.9 | 0.00 | 0.00 | 0.00 | 36 | 1012.3 |
| 20260506112003 | 10 | 307 | 3.2 | 22.5 | 0.00 | 0.00 | 0.00 | 34 | 1012.2 |
| 20260506111003 | 11 | 301 | 3.2 | 12.9 | 0.00 | 0.00 | 0.00 | 34 | 1012.1 |
| 20260506110003 | 11 | 343 | 4.8 | 9.7 | 0.00 | 0.00 | 0.00 | 34 | 1012.1 |
| 20260506105003 | 10 | 23 | 1.6 | 11.3 | 0.00 | 0.00 | 0.00 | 37 | 1012.1 |
| 20260506104003 | 10 | 257 | 6.4 | 11.3 | 0.00 | 0.00 | 0.00 | 35 | 1012.2 |
| 20260506103003 | 11 | 332 | 1.6 | 9.7 | 0.00 | 0.00 | 0.00 | 33 | 1012.3 |
| 20260506102003 | 10 | 59 | 3.2 | 17.7 | 0.00 | 0.00 | 0.00 | 35 | 1012.4 |
| 20260506101003 | 10 | 283 | 4.8 | 14.5 | 0.00 | 0.00 | 0.00 | 34 | 1012.2 |